| time (UTC) | temp C | wind direction | speed KPH | gust KPH | rain 1hr cm | rain 24hr cm | rain mn cm | humidity % | barometer mb |
| 20260505180049 | 7 | 347 | 0.0 | 4.8 | 0.00 | 0.00 | 0.00 | 82 | 1006.0 |
| 20260505174550 | 6 | 347 | 0.0 | 3.2 | 0.00 | 0.00 | 0.00 | 83 | 1006.0 |
| 20260505173053 | 6 | 347 | 0.0 | 1.6 | 0.00 | 0.00 | 0.00 | 85 | 1005.9 |
| 20260505171558 | 6 | 347 | 0.0 | 6.4 | 0.00 | 0.00 | 0.00 | 83 | 1005.8 |
| 20260505170049 | 6 | 347 | 0.0 | 4.8 | 0.00 | 0.00 | 0.00 | 80 | 1005.6 |
| 20260505164551 | 7 | 347 | 3.2 | 8.0 | 0.00 | 0.00 | 0.00 | 79 | 1005.6 |
| 20260505163050 | 7 | 335 | 3.2 | 8.0 | 0.00 | 0.00 | 0.00 | 77 | 1005.8 |
| 20260505161610 | 6 | 347 | 1.6 | 8.0 | 0.00 | 0.00 | 0.00 | 76 | 1005.8 |
| 20260505153051 | 7 | 321 | 1.6 | 6.4 | 0.00 | 0.00 | 0.00 | 76 | 1005.2 |
| 20260505151550 | 7 | 303 | 1.6 | 9.7 | 0.00 | 0.00 | 0.00 | 76 | 1005.4 |
| 20260505124552 | 6 | 317 | 1.6 | 8.0 | 0.00 | 0.00 | 0.00 | 82 | 1002.7 |
| 20260505123051 | 6 | 330 | 4.8 | 9.7 | 0.00 | 0.00 | 0.00 | 82 | 1002.7 |
| 20260505121551 | 6 | 332 | 1.6 | 8.0 | 0.00 | 0.00 | 0.00 | 82 | 1002.7 |
| 20260505120108 | 6 | 335 | 1.6 | 11.3 | 0.00 | 0.00 | 0.00 | 83 | 1002.2 |
| 20260505114551 | 6 | 307 | 3.2 | 12.9 | 0.00 | 0.00 | 0.00 | 84 | 1001.7 |
| 20260505113051 | 6 | 271 | 3.2 | 12.9 | 0.00 | 0.00 | 0.00 | 85 | 1001.8 |
| 20260505111551 | 6 | 302 | 4.8 | 12.9 | 0.00 | 0.00 | 0.00 | 86 | 1001.6 |
| 20260505101553 | 5 | 269 | 0.0 | 9.7 | 0.00 | 0.00 | 0.00 | 88 | 1000.4 |
| 20260505100052 | 5 | 307 | 1.6 | 12.9 | 0.00 | 0.00 | 0.00 | 88 | 1000.0 |
| 20260505094551 | 6 | 306 | 3.2 | 12.9 | 0.00 | 0.00 | 0.00 | 87 | 999.8 |
| 20260505093054 | 7 | 359 | 1.6 | 6.4 | 0.00 | 0.00 | 0.00 | 85 | 999.4 |
| 20260505091551 | 10 | 237 | 1.6 | 8.0 | 0.00 | 0.00 | 0.00 | 79 | 998.6 |
| 20260505090052 | 13 | 255 | 3.2 | 8.0 | 0.00 | 0.00 | 0.00 | 80 | 998.1 |
| 20260505084552 | 15 | 255 | 3.2 | 8.0 | 0.00 | 0.00 | 0.00 | 77 | 997.9 |
| 20260505083052 | 15 | 183 | 1.6 | 16.1 | 0.00 | 0.00 | 0.00 | 77 | 997.4 |
| 20260505081552 | 15 | 160 | 3.2 | 20.9 | 0.00 | 0.00 | 0.00 | 75 | 997.1 |
| 20260505080053 | 16 | 195 | 6.4 | 14.5 | 0.00 | 0.00 | 0.00 | 72 | 996.9 |
| 20260505074558 | 16 | 155 | 4.8 | 12.9 | 0.00 | 0.00 | 0.00 | 70 | 996.6 |
| 20260505073104 | 16 | 202 | 4.8 | 14.5 | 0.00 | 0.00 | 0.00 | 69 | 997.0 |
| 20260505071558 | 16 | 323 | 1.6 | 14.5 | 0.00 | 0.00 | 0.00 | 69 | 997.3 |
| 20260505070054 | 17 | 244 | 3.2 | 12.9 | 0.00 | 0.00 | 0.00 | 66 | 997.1 |
| 20260505064552 | 17 | 214 | 11.3 | 25.7 | 0.00 | 0.00 | 0.00 | 65 | 996.3 |
| 20260505063052 | 17 | 180 | 11.3 | 27.4 | 0.00 | 0.00 | 0.00 | 69 | 996.7 |
| 20260505061556 | 17 | 249 | 9.7 | 29.0 | 0.00 | 0.00 | 0.00 | 71 | 997.3 |
| 20260505060052 | 17 | 207 | 8.0 | 24.1 | 0.00 | 0.00 | 0.00 | 71 | 997.4 |
| 20260505054618 | 16 | 156 | 4.8 | 20.9 | 0.00 | 0.00 | 0.00 | 72 | 997.7 |
| 20260505053103 | 17 | 160 | 9.7 | 27.4 | 0.00 | 0.00 | 0.00 | 72 | 997.9 |
| 20260505051552 | 17 | 184 | 11.3 | 29.0 | 0.00 | 0.00 | 0.00 | 72 | 998.0 |
| 20260505041559 | 16 | 202 | 6.4 | 29.0 | 0.00 | 0.00 | 0.00 | 74 | 997.6 |
| 20260505040056 | 16 | 127 | 11.3 | 25.7 | 0.00 | 0.00 | 0.00 | 74 | 997.6 |
| 20260505034553 | 16 | 147 | 6.4 | 27.4 | 0.00 | 0.00 | 0.00 | 75 | 997.8 |
| 20260505033053 | 16 | 186 | 6.4 | 24.1 | 0.00 | 0.00 | 0.00 | 75 | 998.0 |
| 20260505031607 | 16 | 153 | 8.0 | 24.1 | 0.00 | 0.00 | 0.00 | 75 | 998.1 |
| 20260505030054 | 16 | 178 | 8.0 | 22.5 | 0.00 | 0.00 | 0.00 | 75 | 998.2 |
| 20260505024554 | 16 | 148 | 9.7 | 22.5 | 0.00 | 0.00 | 0.00 | 75 | 998.2 |
| 20260505023111 | 16 | 150 | 4.8 | 27.4 | 0.00 | 0.00 | 0.00 | 74 | 998.2 |
| 20260505021554 | 16 | 150 | 4.8 | 27.4 | 0.00 | 0.00 | 0.00 | 73 | 998.4 |
| 20260505020054 | 16 | 141 | 9.7 | 29.0 | 0.00 | 0.00 | 0.00 | 74 | 998.3 |
| 20260505014602 | 16 | 158 | 11.3 | 25.7 | 0.00 | 0.00 | 0.00 | 74 | 998.1 |
| 20260505013107 | 19 | 197 | 17.7 | 38.6 | 0.00 | 0.00 | 0.00 | 62 | 998.4 |
| 20260505011554 | 19 | 167 | 3.2 | 20.9 | 0.00 | 0.00 | 0.00 | 61 | 997.3 |
| 20260505010053 | 19 | 161 | 3.2 | 12.9 | 0.00 | 0.00 | 0.00 | 60 | 997.3 |
| 20260505004557 | 20 | 122 | 3.2 | 16.1 | 0.00 | 0.00 | 0.00 | 58 | 997.2 |
| 20260505003054 | 20 | 173 | 4.8 | 17.7 | 0.00 | 0.00 | 0.00 | 56 | 997.4 |
| 20260505001556 | 21 | 162 | 1.6 | 17.7 | 0.00 | 0.00 | 0.00 | 54 | 997.3 |
| 20260505000113 | 21 | 167 | 9.7 | 22.5 | 0.00 | 0.00 | 0.00 | 51 | 997.2 |
| 20260504234554 | 21 | 153 | 8.0 | 20.9 | 0.00 | 0.00 | 0.00 | 49 | 997.2 |
| 20260504233057 | 21 | 157 | 12.9 | 30.6 | 0.00 | 0.00 | 0.00 | 46 | 997.3 |
| 20260504231553 | 22 | 143 | 12.9 | 30.6 | 0.00 | 0.00 | 0.00 | 45 | 997.6 |
| 20260504230106 | 22 | 138 | 9.7 | 32.2 | 0.00 | 0.00 | 0.00 | 44 | 997.7 |
| 20260504224554 | 22 | 137 | 9.7 | 30.6 | 0.00 | 0.00 | 0.00 | 44 | 997.9 |
| 20260504223101 | 22 | 135 | 11.3 | 40.2 | 0.00 | 0.00 | 0.00 | 43 | 998.2 |
| 20260504221602 | 22 | 186 | 9.7 | 30.6 | 0.00 | 0.00 | 0.00 | 42 | 998.3 |
| 20260504220059 | 22 | 154 | 12.9 | 38.6 | 0.00 | 0.00 | 0.00 | 42 | 998.3 |
| 20260504214557 | 22 | 165 | 8.0 | 33.8 | 0.00 | 0.00 | 0.00 | 42 | 998.4 |
| 20260504213054 | 23 | 182 | 19.3 | 37.0 | 0.00 | 0.00 | 0.00 | 41 | 998.5 |
| 20260504211558 | 23 | 131 | 12.9 | 37.0 | 0.00 | 0.00 | 0.00 | 41 | 998.5 |
| 20260504210056 | 23 | 192 | 11.3 | 43.5 | 0.00 | 0.00 | 0.00 | 42 | 998.3 |
| 20260504204601 | 22 | 172 | 9.7 | 35.4 | 0.00 | 0.00 | 0.00 | 43 | 998.5 |
| 20260504203104 | 22 | 165 | 8.0 | 35.4 | 0.00 | 0.00 | 0.00 | 43 | 998.8 |
| 20260504201556 | 22 | 155 | 9.7 | 35.4 | 0.00 | 0.00 | 0.00 | 43 | 998.7 |
| 20260504200055 | 22 | 181 | 8.0 | 32.2 | 0.00 | 0.00 | 0.00 | 42 | 999.0 |
| 20260504194555 | 23 | 201 | 8.0 | 22.5 | 0.00 | 0.00 | 0.00 | 42 | 999.1 |
| 20260504193056 | 22 | 150 | 9.7 | 30.6 | 0.00 | 0.00 | 0.00 | 41 | 999.2 |
| 20260504191606 | 23 | 150 | 8.0 | 32.2 | 0.00 | 0.00 | 0.00 | 40 | 999.5 |
| 20260504190116 | 23 | 150 | 11.3 | 29.0 | 0.00 | 0.00 | 0.00 | 40 | 999.5 |
| 20260504184555 | 23 | 235 | 9.7 | 27.4 | 0.00 | 0.00 | 0.00 | 41 | 999.6 |
| 20260504183104 | 22 | 198 | 6.4 | 25.7 | 0.00 | 0.00 | 0.00 | 42 | 999.7 |
| 20260504181559 | 22 | 192 | 4.8 | 29.0 | 0.00 | 0.00 | 0.00 | 43 | 1000.0 |